AirNav   TITAN Aviation Fuels
 
 1011 users online  

KPYP Centre-Piedmont-Cherokee County Regional Airport
Centre, Alabama, USA

GOING TO CENTRE?


FAA INFORMATION EFFECTIVE 01 DECEMBER 2022

Location

FAA Identifier: PYP
Lat/Long: 34-05-23.7000N 085-36-36.3000W
34-05.395000N 085-36.605000W
34.0899167,-85.6100833
(estimated)
Elevation: 594.6 ft. / 181 m (estimated)
Variation: 04W (2010)
From city: 5 miles S of CENTRE, AL
Time zone: UTC -6 (UTC -5 during Daylight Saving Time)
Zip code: 35960

Airport Operations

Airport use: Open to the public
Activation date: 09/2007
Control tower: no
ARTCC: ATLANTA CENTER
FSS: ANNISTON FLIGHT SERVICE STATION
NOTAMs facility: ANB (NOTAM-D service available)
Attendance: UNATNDD
Wind indicator: lighted
Segmented circle: yes
Lights: ACTVT MIRL RWY 07/25 - CTAF.
Beacon: white-green (lighted land airport)
Operates sunset to sunrise.

Airport Communications

CTAF: 122.9
  • APCH/DEP SVC PRVDD BY ATLANTA ARTCC ON FREQS 124.5/270.325 (GADSDEN RCAG).

Nearby radio navigation aids

VOR radial/distance  VOR name  Freq  Var
GADr072/24.5GADSDEN VOR/DME112.3002E
RMGr259/24.8ROME VORTAC115.4001E

 
NDB name  Hdg/Dist  Freq  Var  ID
CARROLLTON327/39.527804WGPQ --. .--. --.-

Airport Services

Fuel available: 100LL
Parking: tiedowns

Runway Information

Runway 7/25

Dimensions: 5500 x 100 ft. / 1676 x 30 m
Surface: asphalt/aggregate friction seal coat, in good condition
Runway edge lights: medium intensity
RUNWAY 7  RUNWAY 25
Latitude: 34-05.189240N34-05.601052N
Longitude: 085-37.089855W085-36.118890W
Elevation: 584.4 ft.594.6 ft.
Traffic pattern: leftleft
Runway heading: 067 magnetic, 063 true247 magnetic, 243 true
Markings: nonprecision, in good conditionnonprecision, in good condition
Touchdown point: yes, no lightsyes, no lights
Obstructions: 65 ft. trees, 2929 ft. from runway, 261 ft. left of centerline, 41:1 slope to clearnone

Airport Ownership and Management from official FAA records

Ownership: Publicly-owned
Owner: CPCCR AIRPORT AUTHORITY
P.O. BOX 466, 8850 ALABAMA HWY 9 S
CENTRE, AL 35960
Phone 256-927-8009
Manager: DONNIE FREE
P.O. 466, 8850 ALABAMA HWY 9 S
CENTRE, AL 35960
Phone 256-927-8009

Airport Operational Statistics

Aircraft based on the field: 20
Single engine airplanes: 19
Multi engine airplanes: 1
    
Aircraft operations: avg 44/day *
51% transient general aviation
49% local general aviation
* for 12-month period ending 31 March 2019

Additional Remarks

FOR CD CTC ATLANTA ARTCC AT 770-210-7692.

Instrument Procedures

NOTE: All procedures below are presented as PDF files. If you need a reader for these files, you should download the free Adobe Reader.

NOT FOR NAVIGATION. Please procure official charts for flight.
FAA instrument procedures published for use from 01 December 2022 at 0901Z to 29 December 2022 at 0900z.

 
IAPs - Instrument Approach Procedures
RNAV (GPS) RWY 07   download (229KB)
RNAV (GPS) RWY 25   download (203KB)
NOTE: Special Take-Off Minimums/Departure Procedures apply   download (189KB)

Other nearby airports with instrument procedures:

4A4 - Polk County Airport/Cornelius Moore Field (24 nm E)
4A9 - Isbell Field Airport (24 nm N)
KGAD - Northeast Alabama Regional Airport (25 nm W)
KRMG - Richard B. Russell Regional Airport - J.H. Towers Field (27 nm NE)
KANB - Anniston Regional Airport (33 nm S)
 
Loc | Ops | Rwys | IFR | FBO | Links
Com | Nav | Svcs | Stats | Notes
Area around KPYP (Centre-Piedmont-Cherokee County Regional Airport)
 
Road maps at: MapQuest Bing Google
 
Aerial photo
WARNING: Photo may not be current or correct
Aerial photo of KPYP (Centre-Piedmont-Cherokee County Regional Airport)
Photo by Harley McGatha
Photo taken 10-Nov-2007
from a PA24-260B Comanche

Do you have a better or more recent aerial photo of Centre-Piedmont-Cherokee County Regional Airport that you would like to share? If so, please send us your photo.

 
Sectional chart

 
Airport distance calculator
Flying to Centre-Piedmont-Cherokee County Regional Airport? Find the distance to fly.

From to KPYP

Sunrise and sunset
Times for 03-Dec-2022
 Local
(UTC-6)
 Zulu
(UTC)
Morning civil twilight06:0512:05
Sunrise06:3312:33
Sunset16:3222:32
Evening civil twilight16:5922:59

Current date and time
Zulu (UTC)  04-Dec-2022 04:05:14
Local (UTC-6)  03-Dec-2022 22:05:14
 
METAR
K4A9 
24nm N 
040355Z AUTO 08003KT 10SM CLR 10/08 A3033 RMK AO2 T00970075
KGAD 
24nm W 
040356Z AUTO 01004KT 10SM CLR 12/10 A3034 RMK AO2 SLP277 T01170100 $
KRMG 
27nm NE 
040353Z AUTO 36006KT 10SM SCT028 12/08 A3032 RMK AO2 SLP263 T01170078
KANB 
33nm S 
040353Z AUTO 02005KT 10SM BKN008 15/14 A3031 RMK AO2 SLP262 T01500144
K8A0 
33nm W 
040355Z AUTO 02003KT 10SM CLR 09/07 A3034 RMK AO2
KPUJ 
35nm E 
040355Z AUTO 36008KT 10SM SCT013 SCT032 12/12 A3032 RMK AO2
KCTJ 
36nm SE 
040335Z AUTO 00000KT 10SM BKN008 OVC015 14/14 A3034 RMK AO2 T01390138
KVPC 
38nm E 
040335Z AUTO 00000KT 10SM SCT014 OVC065 13/11 A3033 RMK AO2
KASN 
38nm SW 
040355Z AUTO 01004KT 10SM SCT017 BKN033 BKN042 15/14 A3032 RMK AO2 T01460141 401850140
K9A5 
39nm NE 
040355Z AUTO 00000KT 7SM CLR 07/07 A3035 RMK AO2 T00680068
TAF
KANB 
33nm S 
040106Z 0401/0424 00000KT 1/4SM FG BKN009 OVC045 FM040400 VRB03KT 3SM BR OVC010 TEMPO 0404/0406 1SM BR OVC009 FM040800 VRB03KT P6SM BKN050 FM041900 33006KT P6SM OVC100
KASN 
38nm SW 
040108Z 0401/0424 00000KT 1/2SM FG SCT016 OVC045 TEMPO 0401/0404 1/4SM FG OVC009 FM040400 VRB03KT 3SM BR OVC010 TEMPO 0404/0406 1SM BR OVC009 FM040800 VRB03KT P6SM BKN050 FM041900 33006KT P6SM OVC100
NOTAMs
Click for the latest NOTAMs
NOTAMs are issued by the DoD/FAA and will open in a separate window not controlled by AirNav.

 

 
 

FBO, Fuel Providers, and Aircraft Ground Support

  
 Business Name 
 
 Contact 
 
 Services / Description 
 
Fuel Prices
 
Comments
  
Centre-Piedmont-Cherokee County Regional Airport 256-927-8009
[email]
Airport management, Aviation fuel, Aircraft parking (ramp or tiedown), Hangar leasing / sales, Passenger terminal and lounge, Aircraft maintenance, ...

More info about Centre-Piedmont-Cherokee County Regional Airport
Phillips 66
100LL
SS $5.99 
 Updated 18-Oct-2022
 
   write
SS=Self service
Update Fuel Prices
 

Would you like to see your business listed on this page?

 If your business provides an interesting product or service to pilots, flight crews, aircraft, or users of the Centre-Piedmont-Cherokee County Regional Airport, you should consider listing it here.  To start the listing process, click on the button below
 
Add a business
 

Other Pages about Centre-Piedmont-Cherokee County Regional Airport

Update a link
 
Copyright © AirNav, LLC. All rights reserved. Privacy Policy  Contact